Language selection

My Weather Profile Weather Topics  | 

Douglas Channel: Past 24 Hour Conditions

 

Kindakun Rocks

02:00 AM PDT 08 May 2021
Disclaimer

This table is a summary of hourly weather conditions for the past 24 hours.
Please note that these observations might not always be representative of weather conditions over their associated marine area.

Date / Time
(PDT)
Wind(knots) Conditions Visibility(km) Pressure(kPa) Air tempC) Relative humidity(%) Dew pointC)
08 May 2021
2:00 SE 13 N/A N/A 101.9 7 83 4
1:00 SE 13 gust 19 N/A N/A 101.9 7 74 3
0:00 SE 13 N/A N/A 102.0 7 75 3
07 May 2021
23:00 SE 15 N/A N/A 102.0 7 74 3
22:00 SSE 15 N/A N/A 102.0 7 78 4
21:00 S 14 N/A N/A 102.0 7 79 4
20:00 SSW 11 N/A N/A 102.0 7 82 4
19:00 SSW 12 N/A N/A 102.0 7 85 5
18:00 SW 15 N/A N/A 102.0 7 88 5
17:00 SW 17 N/A N/A 101.9 7 89 5
16:00 WSW 19 N/A N/A 101.9 7 94 6
15:00 WSW 18 N/A N/A 101.8 7 95 6
14:00 WSW 21 N/A N/A 101.7 7 96 6
13:00 WSW 21 gust 26 N/A N/A 101.7 7 96 7
12:00 WSW 22 N/A N/A 101.6 7 96 6
11:00 WSW 22 N/A N/A 101.5 7 93 6
10:00 WSW 23 N/A N/A 101.4 7 95 7
9:00 SW 23 N/A N/A 101.3 7 97 7
8:00 SW 24 N/A N/A 101.3 7 97 7
7:00 SW 19 gust 25 N/A N/A 101.2 7 96 7
6:00 SSW 20 N/A N/A 101.1 7 95 6
5:00 SSW 22 N/A N/A 101.1 7 93 6
4:00 SSW 20 N/A N/A 101.1 7 91 6
3:00 SSW 19 gust 25 N/A N/A 101.1 7 92 6
2:00 SSW 17 N/A N/A 101.0 7 92 6

Zoom-in to make a selection

Map of Pacific - North Coast marine weather areas Middle Nomad - 46004 South Nomad - 46036 Dixon Entrance Central - 46145 South Moresby - 46147 Nanakwa Shoal - 46181 North Hecate Strait - 46183 North Nomad - 46184 South Hecate Strait - 46185 West Sea Otter - 46204 West Dixon Entrance - 46205 East Dellwood - 46207 West Moresby - 46208 Sartine Island Cape St.James Kindakun Rocks Langara Island Masset Municipal Airport Rose Spit Sandspit Airport Bella Bella Airport Bella Coola Airport Bonilla Island Cathedral Point Cumshewa Island Grey Islet Holland Rock Lucy Islands Lightstation Prince Rupert Airport
Legend:
buoy Buoy
land station Land Station

Pacific - North Coast Area

Another Region

What we are doing

Date modified: